TELSTAR 18V (43611 NORAD) Tracking and Keplerian Element Data

This shows tracking and keplerian element data for the satellite.

Feedback or suggestion? Click here.




ElementValue
Catalog43611
NameTELSTAR 18V
Epoch Orbit2121
Epoch Day159.87918811
Epoch Year2024
RAAN6.6669
Inclination0.0186
Eccentricity0.0001733
Argument of Perigee72.9932
Mean Anonmoly271.5932
Mean Motion1.00271307
Decay Rate-2.94E-06
L11 43611U 18069A 24159.87918811 -.00000294 00000+0 00000+0 0 9997
L22 43611 0.0186 6.6669 0001733 72.9932 271.5932 1.00271307 21217



Live tracking and technical data element details for TELSTAR 18V (NORAD 43611). TELSTAR 18V can be tracked NOW for your location showing map with azimuth and elevation plus other details from your city location.







IsCatalogInMostPopularTable: catalog: 43611, numindb: 1081
Update: records affected: 1



GetName: 43611 TELSTAR 18V

Hit Count: updated at: Tue, 17 Sep 2024 11:37:50 GMT